Location: Grand Rapids
(42.9630°N, 85.6680°W)
Time: 02:46:31
(UTC-04:00)

S-56A Canister/Altair - Pass Details

Date: 07 June 2024
Orbit: 637 x 2489 km, 38.9° (Epoch: 21 June)

Event Time Altitude Azimuth Distance (km) Brightness Sun altitude
Rises 08:14:39 0° 283° (WNW) 6,152 11.6 21.2°
Reaches altitude 10° 08:18:59 10° 279° (W) 5,070 11.2 21.9°
Maximum altitude 08:32:20 49° 212° (SSW) 2,514 10.1 24.3°
Drops below altitude 10° 08:42:15 10° 141° (SE) 3,814 11.6 26.1°
Sets 08:45:03 0° 136° (SE) 4,563 12.0 26.6°
